Location: Ferchesar
(52.6477°N, 12.4298°E)
Time: 10:28:39
(UTC+01:00)

Transit 2A - Pass Details

Date: 10 December 2021
Orbit: 591 x 966 km, 66.7° (Epoch: 26 January)

Event Time Altitude Azimuth Distance (km) Brightness Sun altitude
Exits shadow 04:59:32 25° 350° (N) 1,847 7.8 -27.5°
Maximum altitude 05:01:50 31° 25° (NNE) 1,618 7.8 -27.2°
Drops below altitude 10° 05:07:25 10° 87° (E) 2,681 9.8 -26.4°
Sets 05:10:14 0° 97° (E) 3,594 10.8 -25.9°
